contact: severine.martini@mio.osupytheas.fr, dominique.lefevre@mio.osupytheas.fr
Project:EMSO Ligure-ouest http://www.emso-fr.org/EMSO-France
Sensor Aquadopp, Serial 05974 
DOI : "https://doi.org/10.17882/97948" 
Title:EMSO Western Ligurian : Data Bathybot Aquadopp sensor - deploiement 2023-04-28
Datetime,Profondeur,Latitude,Longitude,X_East,Y_North,Z_up,Amplitude_X,Amplitude_Y,Amplitude_Z,Batterie,Sound_Speed,Heading,Pitch,Roll,Pressure,Temperature,Fluorescence,Speed,Direction
time,m,degree_north,degree_east,m.s-1,m.s-1,m.s-1,1,1,1,Volt,m.s-1,degree,degree,degree,dbar,degree_C,arbitrary units (a.u.),m.s-1,degree
2023-12-14T00:03:13,2420,42.8014,5.9826,0.414,0.074,3.861,155.0,151.0,152.0,11.8,1504.7,271.3,-0.9,0.9,2485.376,13.28,793.0,0.421,79.9
2023-12-14T00:06:13,2420,42.8014,5.9826,0.275,0.078,4.049,155.0,152.0,152.0,11.7,1504.7,271.3,-0.8,0.9,2485.157,13.28,1108.0,0.286,74.2
2023-12-14T00:09:13,2420,42.8014,5.9826,0.309,0.06,4.046,155.0,151.0,152.0,11.7,1504.7,271.3,-0.8,0.9,2485.316,13.28,769.0,0.315,79.0
2023-12-14T00:12:13,2420,42.8014,5.9826,0.113,0.294,3.792,155.0,151.0,152.0,11.8,1504.7,271.4,-0.8,0.9,2485.239,13.28,760.0,0.315,21.0
2023-12-14T00:15:13,2420,42.8014,5.9826,0.465,0.05,3.871,155.0,151.0,152.0,11.8,1504.7,271.4,-0.8,0.9,2485.217,13.28,786.0,0.468,83.9
2023-12-14T00:18:13,2420,42.8014,5.9826,0.228,0.052,4.098,155.0,151.0,152.0,11.7,1504.7,271.4,-0.8,0.9,2485.213,13.28,773.0,0.233,77.2
2023-12-14T00:21:13,2420,42.8014,5.9826,0.409,0.062,3.953,155.0,151.0,152.0,11.8,1504.7,271.3,-0.8,0.9,2485.384,13.28,902.0,0.414,81.4
2023-12-14T00:24:13,2420,42.8014,5.9826,-0.158,0.293,3.2,155.0,151.0,152.0,11.8,1504.7,271.3,-0.9,0.9,2485.267,13.28,767.0,0.333,331.7
2023-12-14T00:27:13,2420,42.8014,5.9826,-0.164,0.08,3.689,155.0,151.0,152.0,11.8,1504.7,271.4,-0.8,0.8,2485.414,13.28,767.0,0.182,296.0
2023-12-14T00:30:13,2420,42.8014,5.9826,0.684,0.049,3.65,155.0,151.0,152.0,11.8,1504.7,271.4,-0.8,0.9,2484.84,13.28,769.0,0.686,85.9
2023-12-14T00:33:13,2420,42.8014,5.9826,0.552,0.022,3.809,155.0,151.0,152.0,11.8,1504.7,271.4,-0.9,0.9,2485.402,13.28,773.0,0.552,87.7
2023-12-14T00:36:13,2420,42.8014,5.9826,0.219,0.061,4.111,155.0,152.0,152.0,11.8,1504.7,271.5,-0.9,0.9,2485.273,13.28,768.0,0.227,74.4
2023-12-14T00:39:13,2420,42.8014,5.9826,0.484,0.059,3.856,155.0,151.0,152.0,11.8,1504.7,271.4,-0.8,0.9,2485.227,13.28,768.0,0.488,83.1
2023-12-14T00:42:13,2420,42.8014,5.9826,0.284,0.064,4.067,155.0,151.0,152.0,11.8,1504.7,271.4,-0.8,0.9,2485.546,13.28,772.0,0.291,77.3
2023-12-14T00:45:13,2420,42.8014,5.9826,0.778,0.03,3.582,155.0,151.0,152.0,11.8,1504.7,271.3,-0.8,0.9,2485.293,13.28,772.0,0.779,87.8
2023-12-14T00:48:13,2420,42.8014,5.9826,0.211,0.044,4.115,155.0,151.0,152.0,11.8,1504.7,271.5,-0.8,0.9,2485.414,13.28,768.0,0.215,78.2
2023-12-14T00:51:13,2420,42.8014,5.9826,0.278,0.067,4.047,155.0,151.0,152.0,11.8,1504.7,271.5,-0.8,0.9,2485.271,13.28,777.0,0.286,76.5
2023-12-14T00:54:13,2420,42.8014,5.9826,0.1,0.296,3.804,155.0,151.0,152.0,11.8,1504.7,271.3,-0.9,0.9,2485.613,13.28,775.0,0.312,18.7
2023-12-14T00:57:13,2420,42.8014,5.9826,0.312,0.06,3.996,155.0,151.0,152.0,11.8,1504.7,271.4,-0.8,0.9,2485.38,13.28,767.0,0.318,79.1
2023-12-14T01:03:13,2420,42.8014,5.9826,0.687,0.013,3.569,155.0,151.0,152.0,11.8,1504.7,271.4,-0.8,0.9,2485.354,13.28,766.0,0.687,88.9
2023-12-14T01:06:13,2420,42.8014,5.9826,0.203,0.068,4.104,155.0,151.0,152.0,11.8,1504.7,271.4,-0.8,0.9,2485.53,13.28,771.0,0.214,71.5
2023-12-14T01:09:13,2420,42.8014,5.9826,0.198,0.531,3.247,155.0,152.0,152.0,11.8,1504.7,271.3,-0.8,0.9,2485.016,13.28,767.0,0.567,20.4
2023-12-14T01:12:13,2420,42.8014,5.9826,0.408,0.306,3.526,155.0,151.0,152.0,11.7,1504.7,271.3,-0.8,0.9,2485.203,13.28,777.0,0.51,53.1
2023-12-14T01:15:13,2420,42.8014,5.9826,1.046,0.037,3.271,155.0,151.0,152.0,11.7,1504.7,271.4,-0.8,0.9,2485.412,13.28,767.0,1.046,88.0
2023-12-14T01:18:13,2420,42.8014,5.9826,0.421,0.053,3.936,155.0,151.0,152.0,11.8,1504.7,271.3,-0.8,0.9,2485.016,13.28,785.0,0.424,82.8
2023-12-14T01:21:13,2420,42.8014,5.9826,0.283,-0.203,3.604,155.0,151.0,152.0,11.8,1504.7,271.3,-0.8,0.8,2485.544,13.28,767.0,0.348,125.7
2023-12-14T01:24:13,2420,42.8014,5.9826,0.603,0.032,3.72,155.0,151.0,152.0,11.8,1504.7,271.3,-0.8,0.9,2485.235,13.28,766.0,0.604,87.0
2023-12-14T01:27:13,2420,42.8014,5.9826,0.176,-0.164,3.75,155.0,151.0,152.0,11.8,1504.7,271.4,-0.8,0.9,2485.151,13.28,758.0,0.24,133.0
2023-12-14T01:30:13,2420,42.8014,5.9826,0.662,0.026,3.625,155.0,151.0,152.0,11.8,1504.7,271.3,-0.9,0.8,2485.364,13.28,766.0,0.662,87.8
2023-12-14T01:33:13,2420,42.8014,5.9826,0.279,0.076,4.09,155.0,152.0,152.0,11.8,1504.7,271.4,-0.8,0.9,2485.366,13.28,773.0,0.289,74.8
2023-12-14T01:36:13,2420,42.8014,5.9826,0.391,0.291,3.502,155.0,151.0,152.0,11.8,1504.7,271.3,-0.8,0.9,2485.227,13.28,779.0,0.487,53.3
2023-12-14T01:39:13,2420,42.8014,5.9826,0.302,0.04,4.059,155.0,151.0,152.0,11.7,1504.7,271.4,-0.8,0.9,2485.195,13.28,772.0,0.305,82.5
2023-12-14T01:42:13,2420,42.8014,5.9826,0.303,0.062,4.038,155.0,151.0,152.0,11.8,1504.7,271.2,-0.8,0.9,2485.442,13.28,777.0,0.309,78.4
2023-12-14T01:45:13,2420,42.8014,5.9826,0.747,0.044,3.599,155.0,151.0,152.0,11.8,1504.7,271.3,-0.9,0.9,2485.135,13.28,766.0,0.748,86.6
2023-12-14T01:48:13,2420,42.8014,5.9826,-0.081,0.303,3.158,155.0,152.0,152.0,11.8,1504.7,271.4,-0.8,0.9,2485.265,13.28,767.0,0.314,345.0
2023-12-14T01:51:13,2420,42.8014,5.9826,0.129,0.787,2.922,155.0,151.0,152.0,11.8,1504.7,271.3,-0.9,0.9,2485.251,13.28,782.0,0.798,9.3
2023-12-14T01:54:14,2420,42.8014,5.9826,0.297,0.302,3.611,155.0,151.0,152.0,11.8,1504.7,271.3,-0.8,0.9,2485.235,13.28,764.0,0.424,44.5
2023-12-14T01:57:13,2420,42.8014,5.9826,0.21,0.076,4.153,155.0,151.0,152.0,11.8,1504.7,271.3,-0.8,0.9,2485.275,13.28,764.0,0.223,70.1
2023-12-14T02:03:13,2420,42.8014,5.9826,0.304,0.044,4.043,155.0,151.0,152.0,11.8,1504.7,271.3,-0.8,0.9,2485.253,13.28,771.0,0.307,81.8
2023-12-14T02:06:13,2420,42.8014,5.9826,0.207,0.056,4.183,155.0,152.0,152.0,11.8,1504.7,271.4,-0.8,0.9,2485.105,13.28,762.0,0.214,74.9
2023-12-14T02:09:13,2420,42.8014,5.9826,0.296,-0.215,3.624,155.0,151.0,152.0,11.8,1504.7,271.3,-0.8,0.9,2485.301,13.28,759.0,0.366,126.0
2023-12-14T02:12:13,2420,42.8014,5.9826,0.09,0.318,3.816,155.0,151.0,152.0,11.8,1504.7,271.4,-0.8,0.9,2484.986,13.28,769.0,0.33,15.8
2023-12-14T02:15:13,2420,42.8014,5.9826,0.447,0.062,3.899,155.0,151.0,152.0,11.8,1504.7,271.3,-0.8,0.9,2485.287,13.28,777.0,0.451,82.1
2023-12-14T02:18:13,2420,42.8014,5.9826,0.373,0.276,3.526,155.0,151.0,152.0,11.8,1504.7,271.4,-0.9,0.9,2485.089,13.28,759.0,0.464,53.5
2023-12-14T02:21:13,2420,42.8014,5.9826,0.712,0.015,3.624,155.0,151.0,152.0,11.8,1504.7,271.5,-0.8,0.8,2485.314,13.28,764.0,0.712,88.8
2023-12-14T02:24:13,2420,42.8014,5.9826,0.052,-0.179,3.891,155.0,151.0,152.0,11.8,1504.7,271.3,-0.8,0.9,2485.157,13.28,760.0,0.186,163.8
2023-12-14T02:27:13,2420,42.8014,5.9826,0.414,0.048,3.954,155.0,151.0,152.0,11.8,1504.7,271.3,-0.9,0.9,2485.069,13.28,789.0,0.417,83.4
2023-12-14T02:30:13,2420,42.8014,5.9826,0.362,0.05,3.982,155.0,151.0,152.0,11.7,1504.7,271.3,-0.9,0.9,2484.974,13.28,776.0,0.365,82.1
2023-12-14T02:33:13,2420,42.8014,5.9826,0.664,0.047,3.671,154.0,151.0,152.0,11.8,1504.7,271.3,-0.8,0.9,2484.864,13.28,771.0,0.666,86.0
2023-12-14T02:36:13,2420,42.8014,5.9826,0.39,0.039,3.95,155.0,151.0,152.0,11.8,1504.7,271.4,-0.8,0.9,2485.191,13.28,769.0,0.392,84.3
2023-12-14T02:39:13,2420,42.8014,5.9826,0.268,0.058,4.103,155.0,151.0,152.0,11.8,1504.7,271.3,-0.8,0.9,2485.454,13.28,764.0,0.274,77.8
2023-12-14T02:42:13,2420,42.8014,5.9826,0.467,-0.198,3.419,155.0,151.0,152.0,11.8,1504.7,271.4,-0.8,0.9,2484.84,13.28,760.0,0.507,113.0
2023-12-14T02:45:13,2420,42.8014,5.9826,0.086,-0.433,3.414,155.0,151.0,152.0,11.8,1504.7,271.2,-0.8,0.9,2485.314,13.28,766.0,0.441,168.8
2023-12-14T02:48:13,2420,42.8014,5.9826,0.045,0.539,3.433,155.0,151.0,152.0,11.7,1504.7,271.3,-0.8,0.9,2485.063,13.28,768.0,0.541,4.8
2023-12-14T02:51:13,2420,42.8014,5.9826,0.268,0.049,4.11,155.0,151.0,152.0,11.8,1504.7,271.3,-0.9,0.9,2485.721,13.28,782.0,0.272,79.6
2023-12-14T02:54:13,2420,42.8014,5.9826,0.138,-0.189,3.753,155.0,151.0,152.0,11.8,1504.7,271.3,-0.8,0.9,2485.398,13.28,763.0,0.234,143.9
2023-12-14T02:57:13,2420,42.8014,5.9826,0.497,0.046,3.805,155.0,151.0,152.0,11.8,1504.7,271.5,-0.8,0.9,2485.406,13.28,776.0,0.499,84.7
2023-12-14T03:03:13,2420,42.8014,5.9826,0.591,0.266,3.239,155.0,151.0,152.0,11.8,1504.7,271.4,-0.8,0.9,2485.34,13.28,780.0,0.648,65.8
2023-12-14T03:06:13,2420,42.8014,5.9826,1.13,0.273,2.777,155.0,152.0,152.0,11.7,1504.7,271.3,-0.8,0.9,2484.916,13.28,771.0,1.162,76.4
2023-12-14T03:09:13,2420,42.8014,5.9826,0.047,0.061,4.227,155.0,152.0,152.0,11.7,1504.7,271.8,-0.8,0.9,2485.243,13.28,764.0,0.077,37.6
2023-12-14T03:12:13,2420,42.8014,5.9826,0.11,0.061,4.014,155.0,152.0,153.0,11.7,1504.7,271.0,-0.9,0.9,2484.934,13.28,767.0,0.125,61.0
2023-12-14T03:15:14,2420,42.8014,5.9826,0.04,0.059,4.092,155.0,152.0,153.0,11.7,1504.7,271.8,-0.9,0.9,2484.677,13.28,766.0,0.071,34.1
2023-12-14T03:18:13,2420,42.8014,5.9826,1.196,0.01,3.111,155.0,151.0,152.0,11.8,1504.7,271.3,-0.9,0.9,2485.583,13.28,779.0,1.196,89.5
2023-12-14T03:21:13,2420,42.8014,5.9826,1.219,0.033,3.097,155.0,152.0,152.0,11.8,1504.7,271.3,-0.9,0.9,2485.322,13.28,773.0,1.219,88.5
2023-12-14T03:24:13,2420,42.8014,5.9826,1.199,0.018,3.117,155.0,152.0,152.0,11.8,1504.7,271.4,-0.8,0.9,2485.414,13.28,768.0,1.199,89.1
2023-12-14T03:27:13,2420,42.8014,5.9826,0.823,0.281,2.219,155.0,151.0,152.0,11.8,1504.7,271.4,-0.8,0.9,2485.243,13.28,775.0,0.87,71.2
2023-12-14T03:30:13,2420,42.8014,5.9826,1.047,0.258,2.824,155.0,151.0,152.0,11.8,1504.7,271.4,-0.8,0.9,2485.41,13.28,766.0,1.078,76.2
2023-12-14T03:33:13,2420,42.8014,5.9826,1.116,0.028,3.186,155.0,151.0,152.0,11.8,1504.7,271.3,-0.9,0.9,2485.253,13.28,781.0,1.116,88.6
2023-12-14T03:36:13,2420,42.8014,5.9826,1.1,0.045,3.209,155.0,151.0,152.0,11.8,1504.7,271.3,-0.8,0.9,2485.663,13.28,783.0,1.101,87.7
2023-12-14T03:39:13,2420,42.8014,5.9826,1.163,0.032,3.156,155.0,152.0,152.0,11.8,1504.7,271.5,-0.8,0.9,2485.318,13.28,774.0,1.163,88.4
2023-12-14T03:42:13,2420,42.8014,5.9826,1.118,0.01,3.197,155.0,151.0,152.0,11.8,1504.7,271.5,-0.8,0.8,2485.448,13.28,761.0,1.118,89.5
2023-12-14T03:45:13,2420,42.8014,5.9826,1.169,0.016,3.144,155.0,151.0,152.0,11.8,1504.7,271.5,-0.8,0.9,2485.532,13.28,780.0,1.169,89.2
2023-12-14T03:48:13,2420,42.8014,5.9826,1.162,0.034,3.171,155.0,151.0,152.0,11.8,1504.7,271.3,-0.8,0.9,2485.336,13.28,764.0,1.162,88.3
2023-12-14T03:51:14,2420,42.8014,5.9826,1.142,0.021,3.198,155.0,151.0,152.0,11.8,1504.7,271.3,-0.8,0.9,2485.631,13.28,776.0,1.142,89.0
2023-12-14T03:54:13,2420,42.8014,5.9826,1.133,0.03,3.163,155.0,151.0,152.0,11.8,1504.7,271.4,-0.8,0.9,2485.488,13.28,775.0,1.133,88.5
2023-12-14T03:57:13,2420,42.8014,5.9826,1.015,0.039,3.333,155.0,151.0,152.0,11.8,1504.7,271.3,-0.8,0.9,2485.492,13.28,776.0,1.016,87.8
2023-12-14T04:03:13,2420,42.8014,5.9826,1.152,0.013,3.155,155.0,152.0,152.0,11.8,1504.7,271.4,-0.9,0.9,2485.189,13.28,759.0,1.152,89.4
2023-12-14T04:06:13,2420,42.8014,5.9826,1.147,0.038,3.082,155.0,151.0,152.0,11.8,1504.7,271.4,-0.8,0.9,2485.452,13.28,754.0,1.147,88.1
2023-12-14T04:09:13,2420,42.8014,5.9826,1.119,0.034,3.148,155.0,151.0,152.0,11.8,1504.7,271.5,-0.8,0.9,2485.328,13.28,769.0,1.119,88.3
2023-12-14T04:12:13,2420,42.8014,5.9826,1.087,0.038,3.253,155.0,151.0,152.0,11.7,1504.7,271.3,-0.9,0.9,2485.233,13.28,778.0,1.088,88.0
2023-12-14T04:15:13,2420,42.8014,5.9826,1.182,0.017,3.157,155.0,151.0,152.0,11.8,1504.7,271.3,-0.8,0.9,2485.723,13.28,767.0,1.182,89.2
2023-12-14T04:18:13,2420,42.8014,5.9826,1.174,0.009,3.14,155.0,152.0,152.0,11.8,1504.7,271.4,-0.8,0.8,2485.504,13.28,776.0,1.174,89.6
2023-12-14T04:21:13,2420,42.8014,5.9826,1.069,0.265,2.812,155.0,152.0,152.0,11.8,1504.7,271.7,-0.8,0.9,2485.362,13.28,776.0,1.101,76.1
2023-12-14T04:24:13,2420,42.8014,5.9826,1.061,-0.231,2.83,155.0,151.0,152.0,11.8,1504.7,271.4,-0.8,0.9,2485.283,13.28,771.0,1.086,102.3
2023-12-14T04:27:13,2420,42.8014,5.9826,1.136,0.022,3.116,155.0,151.0,152.0,11.8,1504.7,271.3,-0.8,0.9,2485.386,13.28,772.0,1.136,88.9
2023-12-14T04:30:13,2420,42.8014,5.9826,1.131,0.018,3.124,155.0,151.0,152.0,11.8,1504.7,271.4,-0.9,0.9,2485.376,13.28,768.0,1.131,89.1
2023-12-14T04:33:13,2420,42.8014,5.9826,1.029,0.166,3.094,155.0,151.0,153.0,11.8,1504.7,271.3,-0.8,0.9,2485.43,13.28,764.0,1.042,80.8
2023-12-14T04:36:13,2420,42.8014,5.9826,0.962,0.266,2.907,155.0,152.0,152.0,11.8,1504.7,271.3,-0.9,0.9,2485.444,13.28,776.0,0.998,74.5
2023-12-14T04:39:13,2420,42.8014,5.9826,1.092,0.258,2.775,155.0,151.0,152.0,11.8,1504.7,271.3,-0.8,0.9,2485.211,13.28,758.0,1.122,76.7
2023-12-14T04:42:13,2420,42.8014,5.9826,1.12,0.026,3.166,155.0,152.0,152.0,11.8,1504.7,271.3,-0.8,0.9,2485.918,13.28,765.0,1.12,88.7
2023-12-14T04:45:13,2420,42.8014,5.9826,1.188,0.023,3.176,155.0,151.0,152.0,11.7,1504.7,271.4,-0.8,0.9,2485.43,13.28,766.0,1.188,88.9
2023-12-14T04:48:13,2420,42.8014,5.9826,1.096,0.035,3.265,155.0,152.0,152.0,11.7,1504.7,271.3,-0.8,0.9,2485.558,13.28,774.0,1.096,88.2
2023-12-14T04:51:13,2420,42.8014,5.9826,1.164,0.027,3.148,155.0,151.0,152.0,11.8,1504.7,271.4,-0.8,0.9,2485.279,13.28,768.0,1.164,88.7
2023-12-14T04:54:13,2420,42.8014,5.9826,1.151,0.029,3.209,155.0,151.0,152.0,11.8,1504.7,271.3,-0.8,0.9,2485.352,13.28,769.0,1.151,88.6
2023-12-14T04:57:13,2420,42.8014,5.9826,1.148,0.026,3.143,155.0,152.0,152.0,11.8,1504.7,271.5,-0.8,0.9,2485.33,13.28,788.0,1.148,88.7
2023-12-14T05:03:13,2420,42.8014,5.9826,1.133,0.037,3.183,155.0,152.0,152.0,11.8,1504.7,271.3,-0.9,0.9,2485.625,13.28,775.0,1.133,88.1
2023-12-14T05:06:13,2420,42.8014,5.9826,1.134,-0.004,3.168,155.0,152.0,152.0,11.8,1504.7,271.5,-0.9,0.9,2485.201,13.28,764.0,1.134,90.2
2023-12-14T05:09:13,2420,42.8014,5.9826,1.137,0.009,3.121,155.0,151.0,152.0,11.8,1504.7,271.5,-0.8,0.9,2485.667,13.28,776.0,1.137,89.5
2023-12-14T05:12:13,2420,42.8014,5.9826,1.111,0.009,3.154,155.0,151.0,152.0,11.8,1504.7,271.5,-0.8,0.9,2485.283,13.28,779.0,1.111,89.5
2023-12-14T05:15:13,2420,42.8014,5.9826,0.993,0.02,3.332,155.0,151.0,152.0,11.8,1504.7,271.3,-0.8,0.9,2485.299,13.28,764.0,0.993,88.9
2023-12-14T05:18:13,2420,42.8014,5.9826,1.121,0.017,3.231,155.0,152.0,152.0,11.8,1504.7,271.5,-0.8,0.9,2485.514,13.28,781.0,1.121,89.1
2023-12-14T05:21:13,2420,42.8014,5.9826,1.199,0.021,3.133,155.0,152.0,152.0,11.8,1504.7,271.5,-0.8,0.9,2485.295,13.28,766.0,1.199,89.0
2023-12-14T05:24:13,2420,42.8014,5.9826,1.229,0.021,3.07,155.0,151.0,152.0,11.8,1504.7,271.6,-0.8,0.9,2485.257,13.28,776.0,1.229,89.0
2023-12-14T05:27:13,2420,42.8014,5.9826,1.155,0.019,3.149,155.0,152.0,152.0,11.8,1504.7,271.5,-0.8,0.9,2485.45,13.28,759.0,1.155,89.1
2023-12-14T05:30:13,2420,42.8014,5.9826,1.099,0.048,3.156,155.0,152.0,152.0,11.8,1504.7,271.3,-0.8,0.9,2485.386,13.28,789.0,1.1,87.5
2023-12-14T05:33:13,2420,42.8014,5.9826,1.153,0.024,3.125,155.0,151.0,152.0,11.8,1504.7,271.5,-0.8,0.9,2485.322,13.28,777.0,1.153,88.8
2023-12-14T05:36:13,2420,42.8014,5.9826,1.131,0.008,3.115,155.0,151.0,152.0,11.8,1504.7,271.5,-0.8,0.9,2485.314,13.28,759.0,1.131,89.6
2023-12-14T05:39:13,2420,42.8014,5.9826,1.133,0.006,3.141,155.0,152.0,152.0,11.8,1504.7,271.5,-0.8,0.9,2485.767,13.28,763.0,1.133,89.7
2023-12-14T05:42:13,2420,42.8014,5.9826,1.027,0.021,3.295,155.0,151.0,152.0,11.8,1504.7,271.5,-0.8,0.9,2485.297,13.28,773.0,1.027,88.8
2023-12-14T05:45:13,2420,42.8014,5.9826,1.048,0.029,3.258,155.0,152.0,152.0,11.8,1504.7,271.5,-0.8,0.9,2485.524,13.28,771.0,1.048,88.4
2023-12-14T05:48:13,2420,42.8014,5.9826,1.114,0.048,3.136,155.0,152.0,152.0,11.7,1504.7,271.3,-0.9,0.9,2485.516,13.28,791.0,1.115,87.5
2023-12-14T05:51:13,2420,42.8014,5.9826,1.151,0.027,3.184,155.0,152.0,152.0,11.8,1504.7,271.4,-0.8,0.8,2485.39,13.28,772.0,1.151,88.7
2023-12-14T05:54:14,2420,42.8014,5.9826,1.078,0.004,3.167,155.0,152.0,152.0,11.8,1504.7,271.3,-0.8,0.9,2485.713,13.28,769.0,1.078,89.8
2023-12-14T05:57:13,2420,42.8014,5.9826,1.121,0.03,3.14,155.0,151.0,152.0,11.8,1504.7,271.4,-0.8,0.9,2485.759,13.28,766.0,1.121,88.5
2023-12-14T06:03:13,2420,42.8014,5.9826,1.107,0.039,3.173,155.0,151.0,152.0,11.8,1504.7,271.4,-0.8,0.9,2485.669,13.28,1001.0,1.108,88.0
2023-12-14T06:06:13,2420,42.8014,5.9826,1.086,0.038,3.164,155.0,151.0,152.0,11.8,1504.7,271.3,-0.8,0.9,2485.615,13.28,780.0,1.087,88.0
2023-12-14T06:09:13,2420,42.8014,5.9826,0.945,0.057,3.327,155.0,152.0,152.0,11.8,1504.7,271.5,-0.8,0.9,2485.95,13.28,760.0,0.947,86.6
2023-12-14T06:12:13,2420,42.8014,5.9826,1.057,0.02,3.158,155.0,152.0,152.0,11.7,1504.7,271.5,-0.8,0.8,2485.94,13.28,753.0,1.057,88.9
2023-12-14T06:15:13,2420,42.8014,5.9826,1.086,0.033,3.188,155.0,152.0,152.0,11.8,1504.7,271.4,-0.8,0.9,2485.617,13.28,760.0,1.086,88.3
2023-12-14T06:18:13,2420,42.8014,5.9826,1.071,0.05,3.159,155.0,151.0,152.0,11.8,1504.7,271.5,-0.8,0.8,2485.526,13.28,772.0,1.072,87.3
2023-12-14T06:21:13,2420,42.8014,5.9826,0.929,0.24,2.969,155.0,151.0,152.0,11.8,1504.7,271.4,-0.8,0.9,2485.462,13.28,783.0,0.959,75.5
2023-12-14T06:24:13,2420,42.8014,5.9826,1.096,0.038,3.208,155.0,152.0,152.0,11.8,1504.7,271.4,-0.9,0.9,2485.593,13.28,781.0,1.097,88.0
2023-12-14T06:27:13,2420,42.8014,5.9826,1.096,0.029,3.152,155.0,151.0,152.0,11.8,1504.7,271.7,-0.8,0.9,2485.645,13.28,759.0,1.096,88.5
2023-12-14T06:30:13,2420,42.8014,5.9826,1.056,0.015,3.22,155.0,151.0,152.0,11.8,1504.7,271.5,-0.8,0.9,2485.364,13.28,781.0,1.056,89.2
2023-12-14T06:33:13,2420,42.8014,5.9826,1.053,0.025,3.214,155.0,151.0,152.0,11.8,1504.7,271.5,-0.8,0.9,2485.209,13.28,768.0,1.053,88.6
2023-12-14T06:36:13,2420,42.8014,5.9826,1.068,0.014,3.227,155.0,152.0,152.0,11.8,1504.7,271.5,-0.8,0.9,2485.496,13.28,765.0,1.068,89.3
2023-12-14T06:39:13,2420,42.8014,5.9826,1.066,0.024,3.18,155.0,152.0,152.0,11.8,1504.7,271.4,-0.8,0.9,2485.807,13.28,766.0,1.066,88.7
2023-12-14T06:42:13,2420,42.8014,5.9826,1.13,0.007,3.15,155.0,151.0,152.0,11.8,1504.7,271.3,-0.8,0.9,2485.892,13.28,776.0,1.13,89.6
2023-12-14T06:45:13,2420,42.8014,5.9826,1.213,0.036,3.093,155.0,152.0,152.0,11.8,1504.7,271.4,-0.8,0.9,2485.362,13.28,778.0,1.213,88.3
2023-12-14T06:48:13,2420,42.8014,5.9826,0.993,0.019,3.215,155.0,152.0,152.0,11.8,1504.7,271.4,-0.8,0.9,2485.235,13.28,1771.0,0.993,88.9
2023-12-14T06:51:14,2420,42.8014,5.9826,1.16,0.033,3.15,155.0,152.0,152.0,11.8,1504.7,271.5,-0.8,0.9,2485.544,13.28,777.0,1.16,88.4
2023-12-14T06:54:13,2420,42.8014,5.9826,0.995,0.018,3.301,155.0,151.0,152.0,11.8,1504.7,271.5,-0.8,0.9,2485.424,13.28,762.0,0.995,89.0
2023-12-14T06:57:13,2420,42.8014,5.9826,1.07,0.033,3.207,155.0,152.0,152.0,11.8,1504.7,271.4,-0.8,0.9,2485.781,13.28,780.0,1.07,88.2
2023-12-14T07:03:13,2420,42.8014,5.9826,1.04,0.03,3.29,155.0,152.0,152.0,11.7,1504.7,271.4,-0.9,0.9,2485.862,13.28,767.0,1.04,88.4
2023-12-14T07:06:13,2420,42.8014,5.9826,1.15,0.044,3.191,155.0,151.0,152.0,11.8,1504.7,271.3,-0.8,0.9,2485.283,13.28,762.0,1.151,87.8
2023-12-14T07:09:13,2420,42.8014,5.9826,1.077,0.036,3.181,155.0,152.0,152.0,11.7,1504.7,271.3,-0.8,0.9,2485.133,13.28,774.0,1.077,88.1
2023-12-14T07:12:13,2420,42.8014,5.9826,0.952,0.273,2.865,155.0,152.0,152.0,11.8,1504.7,271.4,-0.8,0.9,2485.179,13.28,777.0,0.99,74.0
2023-12-14T07:15:13,2420,42.8014,5.9826,1.112,0.028,3.192,155.0,151.0,152.0,11.8,1504.7,271.4,-0.8,0.9,2485.524,13.28,765.0,1.112,88.6
2023-12-14T07:18:13,2420,42.8014,5.9826,1.058,0.036,3.222,155.0,151.0,152.0,11.8,1504.7,271.4,-0.8,0.9,2485.739,13.28,772.0,1.058,88.1
2023-12-14T07:21:14,2420,42.8014,5.9826,0.844,-0.225,3.031,155.0,152.0,152.0,11.8,1504.7,271.4,-0.8,0.9,2485.589,13.28,772.0,0.873,104.9
2023-12-14T07:24:13,2420,42.8014,5.9826,1.122,0.026,3.227,155.0,151.0,152.0,11.8,1504.7,271.4,-0.8,0.9,2485.685,13.28,768.0,1.122,88.7
2023-12-14T07:27:13,2420,42.8014,5.9826,1.056,0.04,3.221,155.0,151.0,152.0,11.8,1504.7,271.3,-0.9,0.9,2485.691,13.28,778.0,1.057,87.8
2023-12-14T07:30:13,2420,42.8014,5.9826,1.074,0.021,3.191,155.0,152.0,152.0,11.8,1504.7,271.4,-0.8,0.9,2485.221,13.28,760.0,1.074,88.9
2023-12-14T07:33:13,2420,42.8014,5.9826,1.099,0.026,3.165,155.0,151.0,152.0,11.8,1504.7,271.4,-0.8,0.9,2485.735,13.28,777.0,1.099,88.6
2023-12-14T07:36:13,2420,42.8014,5.9826,1.112,0.016,3.208,155.0,152.0,152.0,11.8,1504.7,271.4,-0.8,0.9,2485.617,13.28,776.0,1.112,89.2
2023-12-14T07:39:13,2420,42.8014,5.9826,1.166,0.019,3.107,155.0,152.0,152.0,11.8,1504.7,271.4,-0.8,0.9,2485.777,13.28,778.0,1.166,89.1
2023-12-14T07:42:13,2420,42.8014,5.9826,1.163,0.034,3.169,155.0,152.0,152.0,11.8,1504.7,271.3,-0.8,0.9,2485.846,13.28,765.0,1.163,88.3
2023-12-14T07:45:13,2420,42.8014,5.9826,1.14,0.024,3.104,155.0,152.0,152.0,11.7,1504.7,271.5,-0.8,0.9,2485.486,13.28,758.0,1.14,88.8
2023-12-14T07:48:13,2420,42.8014,5.9826,1.105,0.031,3.236,155.0,151.0,152.0,11.8,1504.7,271.3,-0.8,0.9,2485.518,13.28,772.0,1.105,88.4
2023-12-14T07:51:13,2420,42.8014,5.9826,1.159,0.025,3.146,155.0,152.0,152.0,11.8,1504.7,271.4,-0.8,0.9,2485.635,13.28,772.0,1.159,88.8
2023-12-14T07:54:13,2420,42.8014,5.9826,1.123,0.023,3.156,155.0,151.0,152.0,11.8,1504.7,271.4,-0.8,0.9,2485.623,13.28,779.0,1.123,88.8
2023-12-14T07:57:13,2420,42.8014,5.9826,0.957,0.265,2.902,155.0,151.0,152.0,11.8,1504.7,271.5,-0.8,0.9,2485.635,13.28,785.0,0.993,74.5
2023-12-14T08:03:13,2420,42.8014,5.9826,1.154,0.036,3.171,155.0,152.0,152.0,11.8,1504.7,271.4,-0.9,0.9,2485.854,13.28,772.0,1.154,88.2
2023-12-14T08:06:13,2420,42.8014,5.9826,1.025,0.136,3.028,155.0,151.0,155.0,11.8,1504.7,271.3,-0.8,0.9,2485.719,13.28,767.0,1.034,82.4
2023-12-14T08:09:13,2420,42.8014,5.9826,1.012,0.28,2.845,155.0,152.0,152.0,11.8,1504.7,271.4,-0.8,0.9,2485.283,13.28,1335.0,1.05,74.5
2023-12-14T08:12:13,2420,42.8014,5.9826,1.084,0.051,3.223,155.0,152.0,152.0,11.8,1504.7,271.3,-0.8,0.9,2485.472,13.28,764.0,1.085,87.3
2023-12-14T08:15:13,2420,42.8014,5.9826,0.957,0.261,2.936,155.0,152.0,152.0,11.8,1504.7,271.5,-0.9,0.9,2485.755,13.28,761.0,0.992,74.7
2023-12-14T08:18:13,2420,42.8014,5.9826,1.086,0.024,3.15,155.0,151.0,152.0,11.8,1504.7,271.4,-0.8,0.9,2485.277,13.28,771.0,1.086,88.7
2023-12-14T08:21:13,2420,42.8014,5.9826,1.115,0.015,3.214,155.0,152.0,152.0,11.8,1504.7,271.4,-0.8,0.9,2485.98,13.28,769.0,1.115,89.2
2023-12-14T08:24:14,2420,42.8014,5.9826,1.052,0.032,3.23,155.0,151.0,152.0,11.8,1504.7,271.3,-0.9,0.9,2485.623,13.28,773.0,1.052,88.3
2023-12-14T08:27:13,2420,42.8014,5.9826,1.04,0.036,3.287,155.0,151.0,152.0,11.8,1504.7,271.5,-0.8,0.9,2485.554,13.28,769.0,1.04,88.0
2023-12-14T08:30:13,2420,42.8014,5.9826,1.089,0.043,3.186,155.0,152.0,152.0,11.8,1504.7,271.4,-0.8,0.9,2485.799,13.28,763.0,1.09,87.7
2023-12-14T08:33:13,2420,42.8014,5.9826,1.076,0.041,3.165,155.0,151.0,152.0,11.8,1504.7,271.4,-0.8,0.9,2485.681,13.28,774.0,1.077,87.8
2023-12-14T08:36:13,2420,42.8014,5.9826,1.072,0.01,3.23,155.0,152.0,152.0,11.8,1504.7,271.4,-0.9,0.9,2485.643,13.28,772.0,1.072,89.5
2023-12-14T08:39:13,2420,42.8014,5.9826,1.069,0.029,3.212,155.0,152.0,152.0,11.8,1504.7,271.3,-0.8,0.9,2485.581,13.28,764.0,1.069,88.5
2023-12-14T08:42:13,2420,42.8014,5.9826,1.021,0.029,3.24,155.0,151.0,152.0,11.8,1504.7,271.3,-0.8,0.9,2485.438,13.28,772.0,1.021,88.4
2023-12-14T08:45:13,2420,42.8014,5.9826,1.131,0.005,3.173,155.0,151.0,152.0,11.7,1504.7,271.4,-0.8,0.9,2485.173,13.28,766.0,1.131,89.8
2023-12-14T08:48:13,2420,42.8014,5.9826,1.151,0.024,3.131,155.0,152.0,152.0,11.7,1504.7,271.4,-0.8,0.9,2485.562,13.28,764.0,1.151,88.8
2023-12-14T08:51:13,2420,42.8014,5.9826,1.054,0.022,3.185,155.0,152.0,152.0,11.8,1504.7,271.5,-0.9,0.9,2485.611,13.28,762.0,1.054,88.8
2023-12-14T08:54:13,2420,42.8014,5.9826,1.121,0.021,3.095,155.0,151.0,152.0,11.8,1504.7,271.4,-0.8,0.9,2485.297,13.28,781.0,1.121,88.9
2023-12-14T08:57:13,2420,42.8014,5.9826,1.091,0.016,3.136,155.0,151.0,152.0,11.8,1504.7,271.3,-0.8,0.9,2485.392,13.28,777.0,1.091,89.2
2023-12-14T09:03:13,2420,42.8014,5.9826,1.014,0.04,3.23,155.0,152.0,152.0,11.8,1504.7,271.4,-0.8,0.9,2485.623,13.28,771.0,1.015,87.7
2023-12-14T09:06:13,2420,42.8014,5.9826,1.083,0.054,3.139,155.0,152.0,152.0,11.8,1504.7,271.3,-0.8,0.9,2485.896,13.28,782.0,1.084,87.1